GW4826 Weather Reports


time (UTC)temp
F
wind
direction
speed
knots
gust
knots
rain 1hr
in
rain 24hr
in
rain mn
in
humidity
%
barometer
mb
20260906195540 78 95 4.3 18.2 0.00 0.00 0.00 71 1014.2
20260906195036 78 110 9.6 14.8 0.00 0.00 0.00 72 1014.2
20260906194532 78 126 13.0 20.0 0.00 0.00 0.00 71 1014.3
20260906194028 78 134 10.4 15.6 0.00 0.00 0.00 72 1014.3
20260906193527 77 128 13.9 14.8 0.00 0.00 0.00 72 1014.5
20260906193023 77 139 7.8 13.9 0.00 0.00 0.00 73 1014.7
20260906192518 77 136 6.1 9.6 0.00 0.00 0.00 74 1015.0
20260906192017 76 153 9.6 13.9 0.00 0.00 0.00 72 1015.0
20260906191512 76 133 8.7 11.3 0.00 0.00 0.00 74 1015.3
20260906191011 76 139 4.3 9.6 0.00 0.00 0.00 75 1015.5
20260906190511 76 144 7.8 10.4 0.00 0.00 0.00 75 1015.9
20260906190006 76 149 4.3 7.8 0.00 0.00 0.00 78 1015.9
20260906185504 75 144 7.0 10.4 0.00 0.00 0.00 76 1016.2
20260906185003 75 146 2.6 7.0 0.00 0.00 0.00 78 1016.1
20260906184459 76 155 5.2 9.6 0.00 0.00 0.00 75 1016.2
20260906183954 76 157 3.5 9.6 0.00 0.00 0.00 74 1016.3
20260906183450 77 121 2.6 2.6 0.00 0.00 0.00 72 1016.2
20260906182946 77 279 4.3 7.8 0.00 0.00 0.00 71 1016.5
20260906182441 76 314 3.5 3.5 0.00 0.00 0.00 72 1016.5
20260906181937 76 265 1.7 1.7 0.00 0.00 0.00 76 1016.1
20260906181433 76 204 1.7 2.6 0.00 0.00 0.00 75 1016.5
20260906180928 76 276 1.7 3.5 0.00 0.00 0.00 74 1016.8
20260906180423 76 260 0.9 3.5 0.00 0.00 0.00 75 1017.1
20260906175921 76 323 3.5 7.8 0.00 0.00 0.00 74 1017.3
20260906175416 75 220 2.6 7.0 0.00 0.00 0.00 77 1017.4
20260906174914 75 263 2.6 2.6 0.00 0.00 0.00 78 1017.7
20260906174414 74 292 2.6 4.3 0.00 0.00 0.00 80 1017.6
20260906173909 74 233 0.0 5.2 0.00 0.00 0.00 80 1017.8
20260906173404 74 244 1.7 3.5 0.00 0.00 0.00 81 1018.0
20260906172903 74 317 1.7 1.7 0.00 0.00 0.00 83 1018.1
20260906172400 74 8 1.7 3.5 0.00 0.00 0.00 84 1018.4
20260906171854 73 209 1.7 3.5 0.00 0.00 0.00 84 1018.7
20260906171349 73 149 0.9 3.5 0.00 0.00 0.00 84 1018.5
20260906170845 73 299 0.0 1.7 0.00 0.00 0.00 85 1018.2
20260906170341 73 227 1.7 4.3 0.00 0.00 0.00 85 1018.2
20260906165837 74 258 1.7 2.6 0.00 0.00 0.00 85 1018.2
20260906165336 74 254 1.7 3.5 0.00 0.00 0.00 85 1018.3
20260906164831 74 231 1.7 5.2 0.00 0.00 0.00 85 1018.4
20260906164330 74 271 1.7 5.2 0.00 0.00 0.00 86 1018.3
20260906163827 75 345 0.9 3.5 0.00 0.00 0.00 87 1018.1
20260906163323 75 200 2.6 2.6 0.00 0.00 0.00 87 1018.3
20260906162820 75 330 1.7 3.5 0.00 0.00 0.00 86 1018.3
20260906162319 75 259 1.7 1.7 0.00 0.00 0.00 85 1018.5
20260906161814 75 15 1.7 2.6 0.00 0.00 0.00 85 1018.3
20260906161314 75 276 0.9 4.3 0.00 0.00 0.00 85 1017.9
20260906160813 75 153 1.7 6.1 0.00 0.00 0.00 85 1017.6
20260906160307 75 149 4.3 5.2 0.00 0.00 0.00 83 1016.8
20260906155805 75 144 3.5 4.3 0.00 0.00 0.00 84 1016.7
20260906155259 75 145 4.3 5.2 0.00 0.00 0.00 83 1017.1
20260906154755 75 113 1.7 3.5 0.00 0.00 0.00 82 1016.6
20260906154250 75 227 0.0 2.6 0.00 0.00 0.00 82 1016.5
20260906153748 75 187 0.9 2.6 0.00 0.00 0.00 82 1016.5
20260906153243 74 108 0.0 2.6 0.00 0.00 0.00 82 1016.7
20260906152738 74 182 1.7 1.7 0.00 0.00 0.00 84 1016.7
20260906152232 74 117 0.0 3.5 0.00 0.00 0.00 84 1016.9
20260906151732 74 188 2.6 3.5 0.00 0.00 0.00 82 1016.6
20260906151228 74 39 0.0 2.6 0.00 0.00 0.00 83 1016.5
20260906150723 75 245 0.9 3.5 0.00 0.00 0.00 82 1016.8
20260906150218 75 252 2.6 4.3 0.00 0.00 0.00 82 1016.8
20260906145717 75 247 2.6 5.2 0.00 0.00 0.00 83 1017.2
20260906145217 75 261 4.3 7.8 0.00 0.00 0.00 84 1017.1
20260906144712 75 271 5.2 8.7 0.00 0.00 0.00 91 1016.6
20260906144207 76 166 0.9 2.6 0.00 0.00 0.00 96 1016.8
20260906143706 76 311 0.9 3.5 0.00 0.00 0.00 96 1016.6
20260906143204 76 2 1.7 2.6 0.00 0.00 0.00 96 1016.6
20260906142658 75 0 0.0 2.6 0.00 0.00 0.00 96 1016.2
20260906142153 75 4 1.7 3.5 0.00 0.00 0.00 97 1016.1
20260906141651 75 341 1.7 3.5 0.00 0.00 0.00 97 1016.3
20260906141147 75 198 1.7 5.2 0.00 0.00 0.00 97 1016.2
20260906140646 75 148 3.5 5.2 0.00 0.00 0.00 97 1016.0
20260906140141 75 145 2.6 3.5 0.00 0.00 0.00 97 1015.8
20260906135637 75 133 3.5 4.3 0.00 0.00 0.00 97 1015.8
20260906135134 75 172 1.7 2.6 0.00 0.00 0.00 97 1015.5
20260906134629 75 143 2.6 3.5 0.00 0.00 0.00 97 1015.5
20260906134124 75 144 4.3 4.3 0.00 0.00 0.00 97 1015.4
20260906133620 75 156 2.6 3.5 0.00 0.00 0.00 97 1015.5
20260906133115 75 146 5.2 6.1 0.00 0.00 0.00 97 1015.7
20260906132610 75 130 6.1 7.0 0.00 0.00 0.00 97 1015.7
20260906132105 75 146 3.5 5.2 0.00 0.00 0.00 97 1015.8
20260906131600 75 177 3.5 3.5 0.00 0.00 0.00 97 1015.7
20260906131056 75 143 6.1 7.0 0.00 0.00 0.00 98 1015.8
20260906130550 75 195 3.5 8.7 0.00 0.00 0.00 97 1015.7
20260906130045 75 170 4.3 9.6 0.00 0.00 0.00 97 1015.8
20260906125542 75 140 10.4 13.0 0.00 0.00 0.00 97 1015.5
20260906125037 75 152 4.3 9.6 0.00 0.00 0.00 97 1015.2
20260906124532 75 151 7.0 12.2 0.00 0.00 0.00 97 1015.3
20260906124027 75 153 8.7 10.4 0.00 0.00 0.00 97 1015.0
20260906123526 75 135 7.0 9.6 0.00 0.00 0.00 97 1015.5
20260906123021 75 144 5.2 10.4 0.00 0.00 0.00 97 1015.1
20260906122515 75 175 6.1 11.3 0.00 0.00 0.00 97 1014.8
20260906122012 75 143 9.6 12.2 0.00 0.00 0.00 97 1014.8
20260906121508 75 136 7.8 10.4 0.00 0.00 0.00 97 1014.7
20260906121004 75 144 5.2 9.6 0.00 0.00 0.00 97 1014.5
20260906120503 75 136 7.8 8.7 0.00 0.00 0.00 97 1014.5
20260906120000 75 135 7.8 10.4 0.00 0.00 0.00 97 1014.3
20260906115455 75 131 7.8 10.4 0.00 0.00 0.00 98 1014.5
20260906114950 75 134 6.1 8.7 0.00 0.00 0.00 98 1014.5
20260906114445 75 143 5.2 7.8 0.00 0.00 0.00 98 1014.3
20260906113941 75 141 7.0 9.6 0.00 0.00 0.00 98 1014.3
20260906113439 75 139 5.2 9.6 0.00 0.00 0.00 98 1014.1
20260906112935 75 135 7.8 9.6 0.00 0.00 0.00 98 1013.9
20260906112430 75 140 6.1 11.3 0.00 0.00 0.00 98 1014.0
20260906111926 75 139 6.1 7.8 0.00 0.00 0.00 98 1014.1
20260906111425 75 143 7.8 9.6 0.00 0.00 0.00 98 1014.1
20260906110920 75 160 3.5 6.1 0.00 0.00 0.00 98 1014.0
20260906110416 75 146 3.5 6.1 0.00 0.00 0.00 98 1014.2
20260906105915 75 136 5.2 9.6 0.00 0.00 0.00 98 1013.9
20260906105410 75 154 3.5 9.6 0.00 0.00 0.00 97 1014.0
20260906104906 75 145 5.2 7.8 0.00 0.00 0.00 97 1014.1
20260906104404 75 134 5.2 7.8 0.00 0.00 0.00 97 1014.0
20260906103903 75 143 3.5 7.0 0.00 0.00 0.00 97 1014.1
20260906103401 75 149 5.2 10.4 0.00 0.00 0.00 97 1014.2
20260906102857 75 144 4.3 10.4 0.00 0.00 0.00 97 1014.2
20260906102357 75 140 5.2 7.8 0.00 0.00 0.00 97 1014.2
20260906101851 75 153 5.2 7.0 0.00 0.00 0.00 96 1014.5
20260906101347 76 140 5.2 8.7 0.00 0.00 0.00 96 1014.5
20260906100842 75 138 5.2 7.8 0.00 0.00 0.00 96 1014.3
20260906100341 76 145 6.1 7.0 0.00 0.00 0.00 96 1014.3
20260906095837 76 131 5.2 8.7 0.00 0.00 0.00 96 1014.2
20260906095332 76 153 4.3 6.1 0.00 0.00 0.00 96 1014.0
20260906094831 76 138 9.6 9.6 0.00 0.00 0.00 95 1013.9
20260906094326 76 145 5.2 11.3 0.00 0.00 0.00 95 1014.1
20260906093823 76 135 11.3 13.0 0.00 0.00 0.00 95 1013.8
20260906093318 76 149 7.8 13.9 0.00 0.00 0.00 94 1013.7
20260906092808 76 148 10.4 10.4 0.00 0.00 0.00 94 1013.9
20260906092307 76 144 9.6 12.2 0.00 0.00 0.00 94 1013.9
20260906091803 76 139 8.7 12.2 0.00 0.00 0.00 94 1014.0
20260906091259 76 145 8.7 13.0 0.00 0.00 0.00 94 1014.0
20260906090755 76 147 7.8 14.8 0.00 0.00 0.00 94 1014.1
20260906090254 76 138 8.7 11.3 0.00 0.00 0.00 95 1014.1
20260906085748 75 138 9.6 11.3 0.00 0.00 0.00 95 1014.5
20260906085247 75 161 5.2 8.7 0.00 0.00 0.00 95 1014.3
20260906084742 75 148 6.1 8.7 0.00 0.00 0.00 95 1014.7
20260906084241 75 157 3.5 10.4 0.00 0.00 0.00 95 1014.8
20260906083737 75 141 6.1 7.8 0.00 0.00 0.00 95 1014.9
20260906083232 75 139 7.0 8.7 0.00 0.00 0.00 95 1014.9
20260906082727 75 150 5.2 7.8 0.00 0.00 0.00 95 1015.0
20260906082222 75 156 5.2 7.8 0.00 0.00 0.00 95 1015.3
20260906081718 75 142 7.0 7.8 0.00 0.00 0.00 95 1015.2
20260906081213 75 150 3.5 7.8 0.00 0.00 0.00 94 1015.1
20260906080710 75 149 7.0 8.7 0.00 0.00 0.00 94 1015.1
20260906080206 75 144 5.2 8.7 0.00 0.00 0.00 94 1014.9
20260906075705 75 139 9.6 9.6 0.00 0.00 0.00 94 1014.9
20260906075200 75 153 5.2 10.4 0.00 0.00 0.00 94 1014.7
20260906074655 75 154 3.5 10.4 0.00 0.00 0.00 94 1014.8
20260906074154 75 143 6.1 9.6 0.00 0.00 0.00 94 1014.7
20260906073649 75 167 5.2 11.3 0.00 0.00 0.00 94 1014.8
20260906073145 75 136 7.8 9.6 0.00 0.00 0.00 94 1014.7
20260906072640 75 144 5.2 7.0 0.00 0.00 0.00 94 1014.8
20260906072136 74 153 5.2 6.1 0.00 0.00 0.00 94 1015.0
20260906071632 74 147 5.2 6.1 0.00 0.00 0.00 94 1014.9
20260906071132 74 148 5.2 7.0 0.00 0.00 0.00 94 1015.2
20260906070629 75 149 5.2 7.8 0.00 0.00 0.00 93 1014.9
20260906070124 75 135 6.1 7.0 0.00 0.00 0.00 93 1015.0
20260906065624 74 145 4.3 6.1 0.00 0.00 0.00 93 1014.9
20260906065119 74 146 4.3 7.8 0.00 0.00 0.00 93 1014.9
20260906064614 74 155 5.2 8.7 0.00 0.00 0.00 93 1015.0
20260906064109 75 143 5.2 9.6 0.00 0.00 0.00 93 1015.2
20260906063605 75 143 6.1 8.7 0.00 0.00 0.00 92 1015.0
20260906063101 75 149 4.3 8.7 0.00 0.00 0.00 92 1015.0
20260906062556 75 144 4.3 8.7 0.00 0.00 0.00 91 1014.9
20260906062055 75 140 7.0 8.7 0.00 0.00 0.00 91 1015.1
20260906061551 75 128 7.0 8.7 0.00 0.00 0.00 91 1015.1
20260906061050 75 120 3.5 7.8 0.00 0.00 0.00 91 1015.0
20260906060547 75 134 7.0 9.6 0.00 0.00 0.00 91 1015.0
20260906060044 75 145 5.2 10.4 0.00 0.00 0.00 91 1014.8
20260906055540 75 141 4.3 8.7 0.00 0.00 0.00 91 1014.8
20260906055035 75 309 1.7 7.8 0.00 0.00 0.00 90 1014.9
20260906054535 75 141 3.5 7.8 0.00 0.00 0.00 90 1014.8
20260906054030 75 138 5.2 6.1 0.00 0.00 0.00 90 1014.7
20260906053527 75 143 4.3 6.1 0.00 0.00 0.00 90 1014.9
20260906053022 75 139 6.1 7.0 0.00 0.00 0.00 90 1014.7
20260906052518 75 143 3.5 6.1 0.00 0.00 0.00 89 1014.8
20260906052015 75 148 2.6 6.1 0.00 0.00 0.00 89 1014.8
20260906051510 75 148 4.3 6.1 0.00 0.00 0.00 88 1014.8
20260906051005 75 142 4.3 7.0 0.00 0.00 0.00 88 1014.8
20260906050500 75 140 3.5 4.3 0.00 0.00 0.00 88 1014.7
20260906045959 75 137 5.2 6.1 0.00 1.03 1.03 88 1014.8
20260906045458 76 138 4.3 7.0 0.00 1.03 1.03 87 1014.7
20260906044954 76 141 5.2 7.0 0.00 1.03 1.03 87 1014.7
20260906044449 76 142 6.1 9.6 0.00 1.03 1.03 86 1014.9
20260906043945 76 153 4.3 8.7 0.00 1.03 1.03 86 1014.9
20260906043441 76 146 4.3 7.8 0.00 1.03 1.03 86 1014.8
20260906042936 76 145 4.3 7.0 0.00 1.03 1.03 85 1015.0
20260906042435 77 136 6.1 7.0 0.00 1.03 1.03 84 1015.0
20260906041930 77 136 4.3 7.8 0.00 1.03 1.03 84 1015.0
20260906041427 77 133 5.2 7.0 0.00 1.03 1.03 83 1015.1
20260906040926 77 141 5.2 9.6 0.00 1.03 1.03 83 1015.1
20260906040421 77 137 6.1 8.7 0.00 1.03 1.03 83 1014.8
20260906035916 77 133 6.1 8.7 0.00 1.03 1.03 82 1015.1
20260906035413 78 139 7.0 8.7 0.00 1.03 1.03 82 1014.9
20260906034908 78 135 8.7 9.6 0.00 1.03 1.03 81 1015.0
20260906034408 78 134 7.8 11.3 0.00 1.03 1.03 80 1015.1
20260906033903 78 137 7.0 12.2 0.00 1.03 1.03 79 1015.1
20260906033403 78 137 7.8 10.4 0.00 1.03 1.03 79 1015.0
20260906032859 79 136 9.6 11.3 0.00 1.03 1.03 78 1015.0
20260906032355 79 131 9.6 11.3 0.00 1.03 1.03 78 1015.3
20260906031850 79 143 7.8 13.0 0.00 1.03 1.03 77 1015.4
20260906031345 79 132 7.0 12.2 0.00 1.03 1.03 77 1015.1
20260906030845 79 138 9.6 12.2 0.00 1.03 1.03 77 1015.1
20260906030340 79 136 7.8 10.4 0.00 1.03 1.03 76 1015.3
20260906025834 79 149 9.6 9.6 0.00 1.03 1.03 76 1015.4
20260906025328 79 144 7.0 9.6 0.00 1.03 1.03 77 1015.4
20260906024827 79 137 5.2 10.4 0.00 1.03 1.03 76 1015.4
20260906024321 79 139 6.1 8.7 0.00 1.03 1.03 76 1015.2
20260906023817 79 136 6.1 9.6 0.00 1.03 1.03 76 1015.1
20260906023313 79 148 7.8 10.4 0.00 1.03 1.03 75 1015.2
20260906022808 79 138 7.8 9.6 0.00 1.03 1.03 75 1015.2
20260906022306 80 135 4.3 9.6 0.00 1.03 1.03 75 1015.0
20260906021759 80 136 7.0 11.3 0.00 1.03 1.03 74 1014.9
20260906021257 80 136 9.6 11.3 0.00 1.03 1.03 73 1014.8
20260906020752 80 138 7.8 10.4 0.00 1.03 1.03 73 1014.6
20260906020246 80 141 7.0 11.3 0.00 1.03 1.03 73 1014.3
20260906015741 81 134 7.0 11.3 0.00 1.03 1.03 72 1014.8
20260906015239 81 128 7.0 10.4 0.00 1.03 1.03 72 1014.6
20260906014734 81 139 5.2 8.7 0.00 1.03 1.03 72 1014.6
20260906014230 81 140 8.7 10.4 0.00 1.03 1.03 71 1014.3
20260906013720 82 138 9.6 10.4 0.00 1.03 1.03 71 1014.3
20260906013220 82 141 7.8 8.7 0.00 1.03 1.03 71 1014.2
20260906012716 82 137 5.2 9.6 0.00 1.03 1.03 71 1014.1
20260906012215 83 139 7.0 11.3 0.00 1.03 1.03 70 1014.2
20260906011711 83 137 7.0 9.6 0.00 1.03 1.03 71 1014.1
20260906011206 84 138 7.0 11.3 0.00 1.03 1.03 70 1013.9
20260906010701 84 137 7.0 7.8 0.00 1.03 1.03 70 1014.0
20260906010157 84 144 5.2 7.8 0.00 1.03 1.03 69 1014.0
20260906005656 84 139 7.8 8.7 0.00 1.03 1.03 69 1013.9
20260906005156 84 140 6.1 7.8 0.00 1.03 1.03 69 1013.7
20260906004655 85 137 7.0 8.7 0.00 1.03 1.03 67 1013.7
20260906004150 86 144 7.0 11.3 0.00 1.03 1.03 66 1013.7
20260906003646 85 141 6.1 8.7 0.00 1.03 1.03 68 1013.8
20260906003142 86 146 7.0 8.7 0.00 1.03 1.03 67 1013.8
20260906002642 85 145 5.2 7.0 0.00 1.03 1.03 68 1013.7
20260906002136 85 145 6.1 7.0 0.00 1.03 1.03 68 1013.5
20260906001632 85 143 5.2 5.2 0.00 1.03 1.03 69 1013.5
20260906001131 86 150 1.7 5.2 0.00 1.03 1.03 69 1013.6
20260906000627 86 137 7.0 7.0 0.00 1.03 1.03 68 1013.5
20260906000123 87 142 4.3 7.8 0.00 1.03 1.03 66 1013.5
20260905235621 86 155 2.6 3.5 0.00 1.03 1.03 68 1013.5
20260905235117 87 175 1.7 4.3 0.00 1.03 1.03 67 1013.4
20260905234612 87 152 3.5 3.5 0.00 1.03 1.03 67 1013.2
20260905234108 87 162 1.7 4.3 0.00 1.03 1.03 67 1013.4
20260905233608 87 171 0.9 4.3 0.00 1.03 1.03 66 1013.5
20260905233102 87 182 0.9 3.5 0.00 1.03 1.03 67 1013.4
20260905232557 87 157 4.3 5.2 0.00 1.03 1.03 65 1013.4
20260905232053 87 169 2.6 4.3 0.00 1.03 1.03 65 1013.3
20260905231548 88 149 4.3 7.0 0.00 1.03 1.03 64 1013.3
20260905231044 89 165 1.7 3.5 0.00 1.03 1.03 66 1013.4
20260905230543 89 269 0.0 1.7 0.00 1.03 1.03 64 1013.4
20260905230042 89 283 0.0 3.5 0.00 1.03 1.03 62 1013.4
20260905225537 89 118 2.6 2.6 0.00 1.03 1.03 63 1013.3
20260905225032 89 144 2.6 3.5 0.00 1.03 1.03 62 1013.3
20260905224526 89 180 0.0 2.6 0.00 1.03 1.03 61 1013.2
20260905224026 90 222 1.7 1.7 0.00 1.03 1.03 60 1013.3
20260905223525 90 169 1.7 2.6 0.00 1.03 1.03 58 1013.2
20260905223020 90 327 0.9 2.6 0.00 1.03 1.03 58 1013.2
20260905222520 91 250 0.9 2.6 0.00 1.03 1.03 57 1013.1
20260905222015 90 222 0.9 6.1 0.00 1.03 1.03 58 1013.3
20260905221511 92 107 1.7 3.5 0.00 1.03 1.03 55 1013.2
20260905221007 91 146 3.5 12.2 0.00 1.03 1.03 57 1013.3
20260905220503 92 346 0.9 4.3 0.00 1.03 1.03 55 1013.3
20260905220002 92 328 1.7 3.5 0.00 1.03 1.03 54 1013.1
20260905215457 93 142 4.3 4.3 0.00 1.03 1.03 53 1013.4
20260905214954 92 200 0.0 2.6 0.00 1.03 1.03 56 1013.2
20260905214449 92 117 1.7 2.6 0.00 1.03 1.03 51 1013.1
20260905213949 91 162 2.6 7.8 0.00 1.03 1.03 55 1013.2
20260905213445 91 104 2.6 4.3 0.00 1.03 1.03 53 1013.1
20260905212940 91 135 3.5 6.1 0.00 1.03 1.03 55 1013.0
20260905212435 92 344 1.7 3.5 0.00 1.03 1.03 51 1013.0
20260905211934 92 99 2.6 3.5 0.00 1.03 1.03 51 1012.9
20260905211430 92 290 1.7 4.3 0.00 1.03 1.03 51 1012.9
20260905210926 92 98 1.7 4.3 0.00 1.03 1.03 50 1012.8
20260905210420 92 142 7.8 8.7 0.00 1.03 1.03 49 1012.8
20260905205920 92 255 0.0 5.2 0.00 1.03 1.03 52 1012.9
20260905205415 92 324 1.7 8.7 0.00 1.03 1.03 51 1012.9
20260905204913 92 310 1.7 2.6 0.00 1.03 1.03 50 1012.9
20260905204410 92 137 3.5 5.2 0.00 1.03 1.03 53 1012.9
20260905203909 91 175 1.7 5.2 0.00 1.03 1.03 54 1012.7
20260905203404 90 151 4.3 5.2 0.00 1.03 1.03 62 1012.7
20260905202900 90 150 3.5 7.8 0.00 1.03 1.03 58 1012.7
20260905202354 91 131 4.3 5.2 0.00 1.03 1.03 58 1012.9
20260905201850 90 140 5.2 7.8 0.00 1.03 1.03 59 1012.9
20260905201346 90 131 3.5 10.4 0.00 1.03 1.03 57 1012.9
20260905200839 91 160 1.7 3.5 0.00 1.03 1.03 55 1012.7
20260905200336 91 153 4.3 8.7 0.00 1.03 1.03 56 1012.6
20260905195834 90 141 2.6 7.8 0.00 1.03 1.03 57 1012.5